{"data":{"norad_id":52559,"intl_designator":"2022-051AC","name":"STARLINK-3953","alt_names":[],"object_type":"PAYLOAD","status":"ACTIVE","operator":null,"country":"US","launch_date":"2022-05-13","launch_site_code":"AFWTR","launch_vehicle":null,"mission":null,"orbit_class":"UNKNOWN","rcs_meters":null,"size_class":null,"mass_kg":null,"dimensions":null,"purposes":["comms"],"wikipedia_slug":null,"has_3d_model":false,"image_url":null,"decayed_at":null,"tle_current":{"epoch":"2026-05-24T23:19:19.195680Z","epoch_age_seconds":81076,"freshness":"FRESH","line1":"1 52559U 22051AC  26144.97174995  .00001438  00000+0  10842-3 0  9997","line2":"2 52559  53.2134 136.8600 0000920  98.9648 261.1448 15.08832401223099","mean_motion":15.08832401,"eccentricity":9.2e-5,"inclination_deg":53.2134,"raan_deg":136.86,"arg_perigee_deg":98.9648,"mean_anomaly_deg":261.1448,"bstar":0.00010842,"rev_number":22309,"period_min":95.438035334184,"perigee_km":539.13016903187,"apogee_km":540.40306329725,"semimajor_km":6917.9036161646,"source":"CELESTRAK","updated_at":"2026-05-25T13:38:17.165922Z"}}}